COSMOS 2533             
1 43867U 18107A   19264.06329545 -.00000042  00000-0  00000+0 0  9997
2 43867   0.0180 128.4568 0000191 143.6433 180.2802  1.00271889  2759
BREEZE-M R/B            
1 43868U 18107B   19263.61529287 -.00000162  00000-0  00000+0 0  9996
2 43868   0.5892 109.8325 0701265 231.7384  16.0494  0.90470348  2430
BREEZE-M DEB [TANK]     
1 43869U 18107C   19264.90993392 -.00000012  00000-0  00000+0 0  9996
2 43869  48.7833  31.6620 7216756  63.8033 351.3595  2.27483335  6251